Weather History for KRIC - August, 2013

Change the Weather History Date:

Saturday, August 17, 2013

  Actual Average Record
Temperature  
Mean Temperature 72 °F 78 °F  
Max Temperature 80 °F 88 °F 99 °F (1987)
Min Temperature 63 °F 68 °F 56 °F (1963)
Degree Days  
Heating Degree Days 0 0  
Month to date heating degree days 0 0  
Since 1 June heating degree days 0 7  
Since 1 July heating degree days 0 0  
Cooling Degree Days 7 13  
Month to date cooling degree days 198 226  
Year to date cooling degree days 1259 1145  
Since 1 June cooling degree days 1046 984  
Growing Degree Days 22 (Base 50)    
Moisture  
Dew Point 63 °F    
Average Humidity 72    
Maximum Humidity 90    
Minimum Humidity 54    
Precipitation  
Precipitation 0.35 in 0.15 in 3.17 in (1977)
Month to date precipitation 2.98 2.60  
Year to date precipitation 34.24 27.93  
Snow  
Snow 0.00 in 0.00 in 0.00 in (2002)
Month to date snowfall 0.0 0.0  
Since 1 July snowfall 0.0 0.0  
Snow Depth 0.00 in    
Sea Level Pressure  
Sea Level Pressure 30.21 in    
Wind  
Wind Speed 8 mph (NE)    
Max Wind Speed 16 mph    
Max Gust Speed 21 mph    
Visibility 9 miles    
Events Rain    
T = Trace of Precipitation, MM = Missing Value Source: NWS Daily Summary

Daily Weather History Graph

Daily Weather History Graph

Search for Another Location

Airport or City:

Trip Planner

Search our weather history database for the weather conditions in past years. The results will help you decide how hot, cold, wet, or windy it might be!

Date:

Astronomy

Aug. 17, 2013 Rise Set
Actual Time 6:27 AM EDT 7:58 PM EDT
Civil Twilight 5:59 AM EDT 8:26 PM EDT
Nautical Twilight 5:26 AM EDT 8:59 PM EDT
Astronomical Twilight 4:50 AM EDT 9:34 PM EDT
Moon 5:10 PM EDT (8/17) 2:30 AM EDT (8/17)
Length of Visible Light 14h 26m
Length of Day
13h 31m
Waxing Gibbous, 84% of the Moon is Illuminated
Aug 17
Waxing Gibbous
Aug 20
Full
Aug 28
Last Quarter
Sep 5
New
Sep 12
First Quarter

Hourly Weather History & Observations

Time (EDT) Temp. Dew Point Humidity Pressure Visibility Wind Dir Wind Speed Gust Speed Precip Events Conditions
12:54 AM 64.0 °F 59.0 °F 84% 30.20 in 10.0 mi North 4.6 mph - N/A   Scattered Clouds
1:54 AM 64.0 °F 59.0 °F 84% 30.19 in 10.0 mi North 6.9 mph - N/A   Partly Cloudy
2:54 AM 63.0 °F 59.0 °F 87% 30.18 in 10.0 mi North 6.9 mph - N/A   Partly Cloudy
3:54 AM 64.0 °F 59.0 °F 84% 30.19 in 10.0 mi NNE 4.6 mph - N/A   Mostly Cloudy
4:54 AM 64.0 °F 59.0 °F 84% 30.19 in 10.0 mi NNE 5.8 mph - N/A   Scattered Clouds
5:54 AM 64.9 °F 59.0 °F 81% 30.20 in 10.0 mi NNE 5.8 mph - N/A   Mostly Cloudy
6:54 AM 66.0 °F 60.1 °F 81% 30.22 in 10.0 mi North 5.8 mph - N/A   Overcast
7:54 AM 66.9 °F 60.1 °F 79% 30.22 in 10.0 mi NNE 9.2 mph - N/A   Mostly Cloudy
8:54 AM 71.1 °F 62.1 °F 73% 30.23 in 10.0 mi NNE 10.4 mph 16.1 mph N/A   Overcast
9:54 AM 71.1 °F 63.0 °F 75% 30.24 in 10.0 mi NNE 8.1 mph - N/A   Overcast
10:54 AM 75.9 °F 63.0 °F 64% 30.24 in 10.0 mi NE 9.2 mph 17.3 mph N/A   Overcast
11:54 AM 77.0 °F 61.0 °F 58% 30.24 in 10.0 mi ENE 12.7 mph - N/A   Mostly Cloudy
12:54 PM 78.1 °F 61.0 °F 56% 30.23 in 10.0 mi ENE 10.4 mph - N/A   Mostly Cloudy
1:54 PM 78.1 °F 64.0 °F 62% 30.22 in 10.0 mi ENE 5.8 mph - N/A   Overcast
2:54 PM 78.1 °F 63.0 °F 60% 30.22 in 10.0 mi East 9.2 mph - N/A   Overcast
3:54 PM 78.1 °F 63.0 °F 60% 30.20 in 10.0 mi NE 10.4 mph - N/A   Overcast
4:54 PM 77.0 °F 63.0 °F 62% 30.20 in 10.0 mi ENE 9.2 mph - N/A   Overcast
5:54 PM 75.9 °F 63.0 °F 64% 30.21 in 10.0 mi ENE 9.2 mph - N/A   Overcast
6:54 PM 75.0 °F 63.0 °F 66% 30.19 in 10.0 mi NE 5.8 mph - N/A   Overcast
7:54 PM 73.9 °F 64.0 °F 71% 30.20 in 10.0 mi NE 5.8 mph - N/A   Overcast
8:54 PM 72.0 °F 66.0 °F 81% 30.21 in 10.0 mi NE 5.8 mph - 0.01 in Rain Light Rain
9:16 PM 71.6 °F 66.2 °F 83% 30.20 in 10.0 mi NE 4.6 mph - 0.01 in   Overcast
9:40 PM 71.6 °F 66.2 °F 83% 30.20 in 10.0 mi NNE 4.6 mph - 0.01 in   Overcast
9:47 PM 71.6 °F 66.2 °F 83% 30.20 in 10.0 mi NNE 4.6 mph - 0.01 in   Overcast
9:54 PM 72.0 °F 66.9 °F 84% 30.21 in 10.0 mi NNE 4.6 mph - 0.01 in   Overcast
10:54 PM 71.1 °F 66.9 °F 87% 30.21 in 7.0 mi NE 5.8 mph - 0.00 in Rain Light Rain
11:18 PM 69.8 °F 66.2 °F 88% 30.20 in 2.5 mi NE 8.1 mph - 0.06 in Rain Heavy Rain
11:42 PM 69.8 °F 66.2 °F 88% 30.19 in 4.0 mi NE 9.2 mph - 0.19 in Rain Light Rain
11:54 PM 69.1 °F 66.9 °F 93% 30.20 in 5.0 mi NE 9.2 mph - 0.20 in Rain Light Rain